Location: Okie-Tex Star Party
(36.8978°N, 102.9520°W)
Time: 14:14:29
(UTC-05:00)

Oscar 16 - Visible Passes

Search period start: 22 May 2017 00:00
Search period end: 01 June 2017 00:00
Orbit: 776 x 790 km, 98.6° (Epoch: 21 May)

Date Brightness Start Highest point End Pass type
(mag) Time Alt. Az. Time Alt. Az. Time Alt. Az.
22 May 11.0 03:19:03 10° NNE 03:24:02 57° E 03:24:02 57° E visible
22 May 12.4 04:59:50 10° NNW 05:02:58 16° WNW 05:04:36 14° W visible
23 May 12.1 02:47:59 10° NE 02:52:02 27° E 02:52:02 27° E visible
23 May 11.6 04:27:06 10° N 04:31:38 31° WNW 04:32:37 29° W visible
24 May 13.0 02:18:03 10° ENE 02:20:02 13° E 02:20:02 13° E visible
24 May 10.6 03:55:03 10° N 04:00:10 64° WNW 04:00:37 61° WSW visible
25 May 10.8 03:23:24 10° NNE 03:28:33 63° ESE 03:28:37 63° ESE visible
25 May 12.5 05:04:29 10° NNW 05:07:18 15° WNW 05:09:11 12° W visible
26 May 12.0 02:52:15 10° NE 02:56:37 30° E 02:56:37 30° E visible
26 May 11.7 04:31:36 10° N 04:36:00 29° WNW 04:37:11 26° W visible
27 May 12.9 02:22:04 10° ENE 02:24:37 15° E 02:24:37 15° E visible
27 May 10.7 03:59:28 10° N 04:04:32 58° WNW 04:05:11 53° WSW visible
28 May 10.6 03:27:46 10° NNE 03:32:56 70° ESE 03:33:11 68° ESE visible
28 May 12.6 05:09:11 10° NNW 05:11:37 13° WNW 05:13:45 11° W visible
29 May 11.8 02:56:32 10° NNE 03:01:10 33° E 03:01:10 33° E visible
29 May 11.9 04:36:06 10° NNW 04:40:21 26° WNW 04:41:44 23° W visible
30 May 12.7 02:26:09 10° NE 02:29:10 16° E 02:29:10 16° E visible
30 May 10.9 04:03:54 10° N 04:08:55 52° WNW 04:09:44 47° WSW visible
31 May 10.5 03:32:09 10° NNE 03:37:20 77° ESE 03:37:43 72° SSE visible
31 May 12.7 05:13:58 10° NW 05:15:57 12° WNW 05:17:55 10° W visible
